Regional Weather Roundup
Issued by NWS Jackson, KY

Home | Current Version | Previous Version | Graphics & Text | Print | Product List | Glossary On
Versions: 1 2 3 4 5 6 7 8 9 10 11 12 13 14 15 16 17 18 19 20 21 22 23 24 25 26 27 28 29 30 31 32 33 34 35 36 37 38 39 40 41 42 43 44 45 46 47 48 49 50
000
ASUS43 KJKL 230805
RWRJKL

EAST KENTUCKY HOURLY WEATHER ROUNDUP
NATIONAL WEATHER SERVICE JACKSON KY
400 AM EDT WED APR 23 2014

NOTE: "FAIR" INDICATES FEW OR NO CLOUDS BELOW 12,000 FEET WITH
NO SIGNIFICANT WEATHER AND/OR OBSTRUCTIONS TO VISIBILITY.

* THESE REPORTS ARE NOT UNDER NWS QUALITY CONTROL AND MAY NOT
  REPORT WEATHER SUCH AS PRECIPITATION AND FOG.

KYZ079-080-083-085-087-088-110-112-115-119-120-230900
...EASTERN KENTUCKY...

CITY           SKY/WX    TMP DP  RH WIND       PRES   REMARKS
JACKSON        CLEAR     46  27  47 VRB3      29.95R
LONDON         CLEAR     47  30  51 N3        29.95S
SOMERSET*      CLEAR     46  30  53 NE5       29.98S
WILLIAMSBURG*  CLEAR     46  32  57 CALM      29.96R
MIDDLESBORO*   CLEAR     50  33  50 N5        29.95R
HARLAN APT*    SUNNY     48  32  53 N9        29.94R
BLACK MTN*       N/A     36  30  80 NW5         N/A  WCI  32
PIKEVILLE APT* CLEAR     45  32  61 NW8       29.92S
BIG SANDY*     SUNNY     46  32  57 NW6       29.94R
$$

KYZ035-036-041-042-044-050-067-078-099-230900
...CENTRAL KENTUCKY...

CITY           SKY/WX    TMP DP  RH WIND       PRES   REMARKS
MT STERLING*   CLEAR     43  32  65 NE3       29.99S
FLEMING/MASON* CLEAR     41  31  66 NW3       29.99R
RICHMOND*      CLEAR     45  30  57 N3        29.98R
LEXINGTON      CLEAR     44  31  60 N3        29.99R
FRANKFORT      CLEAR     45  31  58 N5        29.99R
$$

KYZ091>093-OHZ055-061-077-WVZ005-015-034-035-042-230900
...SOUTHERN OHIO/WEST VIRGINIA...

CITY           SKY/WX    TMP DP  RH WIND       PRES   REMARKS
COVINGTON      CLEAR     42  31  64 NW7       29.99S
COLUMBUS       PTCLDY    44  30  57 N10       29.93S
DAYTON         CLEAR     40  30  67 NW8       29.99R WCI  34
WILMINGTON     CLEAR     40  29  64 NW7       29.97R
HUNTINGTON     CLEAR     44  30  57 NW9       29.93S
CHARLESTON     CLEAR     47  34  60 NW8G18    29.90R
PINEVILLE*     CLEAR     49  36  60 MISG      29.93R
BECKLEY        CLEAR     43  30  60 NW15      29.85S
BLUEFIELD      CLEAR     48  29  47 NW10G20   29.85R
$$

VAZ002-007-008-TNZ017-027-036-066-071-230900
...SOUTHWEST VIRGINIA/EAST TENNESSEE...

CITY           SKY/WX    TMP DP  RH WIND       PRES   REMARKS
WISE*          CLEAR     45  30  57 W3        29.91S
ABINGDON*      CLEAR     53  30  41 N14       29.86S
BRISTOL        PTCLDY    51  30  44 N9        29.88R
KNOXVILLE      CLEAR     55  34  45 N8        29.90R
OAK RIDGE      CLEAR     51  38  60 CALM      29.93R
CROSSVILLE     CLEAR     50  34  54 N7        29.94S
NASHVILLE      CLEAR     55  39  54 N5        29.96S
$$

...KEY TO REMARKS...
VSB - VISIBILITY IN MILES
WCI - WIND CHILL INDEX
HX  - HEAT INDEX

$$



USA.gov is the U.S. government's official web portal to all federal, state and local government web resources and services.